Vertical_Velocity
0 1 -3 -3 1 -0 -1 -14 -7 -0 -5 0 2 1 -4 -3 1 1 -2 -4 -3 3 -1 2 4 2 8
-2 -5 1 4 -1 -7 2 -1 -2 -5 -6 -1 -0 -4 2 2 1 -2 -5 0 -3 2 -0 -2 2 2 0
-10 -2 5 -2 -7 -7 1 -3 -0 -6 -5 -1 -5 -4 -3 -4 -4 -3 -1 1 0 -3 -5 -0 -3 -2 -5
-5 -7 8 -2 -3 7 -9 -3 -5 -8 -10 4 -9 0 -6 -3 -1 -2 -3 -7 -7 -5 -2 1 -3 -4 -5
-3 10 -11 -5 3 -4 -2 -3 -13 5 -20 -1 -7 4 -7 -7 -2 -1 -1 -2 -1 2 -3 -3 -2 -3 -3
9 -5 -7 1 -5 1 -0 7 -25 7 1 -21 6 -9 -5 -2 1 1 1 1 -2 1 1 -0 -2 -4 1
4 3 -3 2 -3 -5 3 4 -1 -14 2 -14 4 -13 0 -6 2 1 -3 -1 -0 -2 -3 -3 1 2 -0
-0 -5 -1 -1 13 6 3 -10 -4 -4 10 -7 -1 -12 -4 -1 2 -3 -1 -2 -1 -2 0 -0 1 -1 1
-3 -2 -3 -4 6 1 -7 9 -15 -9 -0 6 -2 -9 -8 -16 -4 1 0 1 2 -1 2 1 -1 -2 -2
0 -2 -1 -4 1 5 3 -2 5 -15 6 6 -1 8 -19 -9 -8 -3 -8 7 1 4 2 2 -0 4 0
-3 -2 -0 -0 1 1 5 6 -1 1 -3 20 -2 -2 9 -17 -16 -2 7 -6 -5 -3 2 2 4 10 6
-2 -4 -2 -0 1 3 5 5 5 -2 -6 9 -3 7 4 -8 -1 -17 3 0 2 -7 -7 -3 -6 2 5
-2 -3 1 -1 -0 -2 -4 5 -1 0 1 2 4 -0 8 -1 -5 -16 -2 -15 -3 -1 3 7 4 8 -3
-3 0 -2 -4 -5 4 -2 -2 -5 -13 7 4 2 7 -5 8 11 -10 2 7 -1 1 0 1 4 10 5
-0 -1 -1 1 -1 2 2 -2 3 -3 -14 -1 3 2 6 3 -14 5 -6 -2 4 -5 -1 -6 0 9 3
1 2 0 -2 -5 -4 4 2 -2 -2 -3 -2 -6 -8 -1 4 11 0 -1 4 -0 -3 3 8 -11 3 2
1 -0 -2 0 2 -3 -1 2 -4 0 -2 -0 -1 5 0 -7 -11 35 8 2 1 -0 3 9 6 -2 8
Height
1421 1418 1413 1409 1405 1401 1396 1388 1380 1376 1371 1365 1361 1357 1353 1349 1345 1341 1338 1334 1332 1329 1327 1326 1325 1324 1324
1412 1408 1406 1402 1397 1392 1388 1382 1374 1367 1361 1356 1351 1346 1341 1338 1333 1329 1325 1322 1319 1317 1314 1313 1311 1310 1310
1402 1402 1397 1393 1388 1383 1377 1373 1367 1360 1353 1347 1342 1336 1331 1327 1322 1317 1313 1309 1306 1304 1301 1299 1297 1296 1296
1402 1394 1390 1386 1382 1374 1368 1364 1358 1353 1343 1338 1332 1326 1321 1315 1310 1304 1300 1296 1293 1290 1288 1286 1284 1283 1283
1397 1391 1385 1379 1375 1369 1361 1354 1347 1345 1334 1327 1323 1315 1307 1302 1297 1292 1288 1284 1280 1277 1274 1272 1271 1270 1269
1392 1387 1380 1375 1369 1363 1355 1347 1336 1337 1330 1316 1315 1304 1298 1292 1286 1282 1277 1272 1268 1264 1261 1259 1257 1256 1255
1385 1382 1375 1370 1364 1355 1349 1343 1334 1327 1323 1307 1306 1296 1289 1280 1275 1270 1265 1260 1256 1252 1248 1245 1243 1241 1240
1381 1374 1369 1363 1358 1351 1343 1335 1326 1320 1318 1304 1297 1287 1279 1272 1265 1260 1255 1250 1245 1240 1236 1233 1230 1227 1225
1373 1367 1362 1356 1351 1344 1336 1330 1319 1310 1306 1299 1290 1281 1271 1259 1255 1252 1248 1242 1236 1230 1224 1219 1216 1212 1210
1364 1359 1354 1348 1344 1340 1333 1325 1316 1304 1299 1294 1284 1280 1263 1254 1249 1244 1237 1232 1226 1220 1215 1209 1204 1199 1194
1356 1351 1347 1342 1338 1333 1327 1320 1311 1301 1295 1290 1279 1273 1269 1252 1240 1235 1230 1221 1215 1209 1204 1197 1190 1187 1180
1351 1345 1340 1334 1329 1324 1318 1311 1305 1296 1288 1284 1274 1268 1260 1248 1237 1227 1221 1215 1208 1198 1190 1181 1175 1170 1167
1346 1339 1334 1328 1321 1315 1309 1302 1295 1289 1283 1277 1269 1261 1255 1246 1235 1222 1213 1205 1198 1190 1181 1171 1162 1155 1147
1341 1334 1327 1321 1315 1309 1301 1294 1287 1279 1276 1270 1262 1256 1247 1239 1231 1218 1210 1202 1191 1183 1172 1159 1150 1142 1134
1336 1329 1322 1316 1309 1303 1297 1289 1283 1274 1265 1261 1256 1249 1241 1234 1223 1215 1206 1196 1187 1176 1166 1152 1140 1133 1125
1331 1325 1318 1311 1304 1298 1293 1286 1278 1270 1262 1255 1248 1240 1232 1225 1221 1213 1204 1193 1182 1172 1163 1151 1137 1128 1120
1327 1320 1314 1308 1302 1294 1288 1281 1274 1267 1260 1254 1247 1240 1230 1221 1211 1209 1199 1188 1178 1168 1160 1148 1136 1126 1118